SCP
-0 -0 -0 -0 -0 -0 -0 -0 -0 0 0 0 0 0 0 0 0 0 0 0 -0 0 0 0 0 0 0 0 0 0 1 0 0 0 0 0 0 0
-0 -0 -0 -0 -0 -0 -0 -0 -0 -0 0 0 0 0 -0 0 -0 0 0 0 0 0 0 0 0 0 0 0 0 0 0 0 0 0 0 0 0 0
-0 -0 -0 -0 -0 -0 0 -0 -0 -0 -0 -0 -0 0 0 0 -0 0 0 0 0 0 0 0 0 0 0 0 0 0 0 0 0 0 0 0 0 0
0 -0 0 0 -0 -0 -0 0 0 -0 -0 -0 -0 -0 0 0 0 -0 -0 0 0 0 0 0 0 0 0 0 0 0 0 0 0 0 0 0 0 0
0 -0 0 0 0 0 0 0 -0 -0 -0 -0 -0 -0 -0 0 0 -0 -0 -0 0 0 0 0 1 0 0 0 0 0 0 0 0 0 0 0 0 0
-0 -0 -0 0 0 0 0 -0 -0 -0 -0 -0 -0 -0 -0 -0 -0 -0 -0 0 0 0 0 1 1 1 1 0 0 0 0 0 0 0 0 0 0 0
0 -0 -0 -0 0 0 0 0 -0 -0 -0 -0 -0 -0 -0 -0 -0 -0 0 0 0 0 1 1 2 1 1 0 0 0 0 0 0 0 0 0 0 0
0 0 0 -0 0 0 0 0 0 -0 -0 -0 -0 0 0 0 0 0 0 -0 -0 1 1 0 2 1 1 0 0 0 0 0 0 0 0 0 0 0
0 0 0 0 0 0 0 0 0 0 0 0 0 0 0 0 0 0 0 0 0 0 2 1 2 1 0 0 0 0 0 0 0 0 0 0 0 0
0 0 0 0 0 0 0 0 0 0 0 0 0 0 0 0 0 0 0 0 1 1 2 1 2 2 0 0 0 0 0 0 0 0 0 0 0 0
0 0 0 0 0 0 0 0 0 0 0 -0 0 0 0 0 0 0 0 -0 0 1 1 1 1 1 1 0 0 0 0 0 0 0 0 0 0 0
0 0 0 0 0 0 0 0 0 0 0 0 0 0 0 0 0 0 1 1 1 1 1 2 2 1 1 0 0 0 0 0 0 0 0 0 0 0
0 0 0 0 0 0 0 0 0 1 0 0 0 0 0 0 0 1 0 1 1 1 2 3 2 1 1 0 0 0 -0 -0 0 0 0 0 0 0
1 0 0 0 0 0 0 0 0 0 0 0 0 0 0 1 1 1 1 0 1 1 2 3 2 1 1 0 0 0 0 0 0 0 0 0 0 0
1 0 0 0 0 0 0 0 0 0 0 0 0 0 1 1 1 1 1 1 1 1 2 2 2 1 1 0 0 0 0 0 0 0 0 0 0 0
0 1 1 0 0 0 0 0 0 0 0 0 0 0 1 1 1 1 1 1 2 2 2 2 2 2 1 0 0 0 0 0 0 0 0 0 0 0
0 1 1 0 0 0 0 0 0 0 0 0 0 0 1 1 1 1 2 2 3 3 3 1 1 1 0 0 0 0 0 0 0 0 0 0 0 0
0 2 1 1 1 1 1 1 1 1 1 1 1 1 2 2 1 2 3 3 3 2 2 1 1 0 0 0 0 0 0 0 0 0 0 0 0 0
2 1 2 2 2 2 2 2 1 1 1 1 1 2 2 2 2 2 3 3 2 2 2 1 1 0 0 0 0 0 0 0 0 0 0 0 0 0
1 3 2 2 2 2 2 2 2 1 1 2 3 3 3 3 3 3 3 3 2 1 1 1 1 0 0 1 0 0 0 0 0 0 0 0 0 0
0 2 2 2 2 2 2 2 2 3 3 3 3 3 2 3 3 3 3 2 2 1 1 1 1 0 0 0 0 0 0 0 0 0 0 0 0 0
1 1 1 0 0 0 0 0 1 1 1 1 0 1 1 0 1 2 2 2 1 1 1 0 0 0 0 0 0 0 0 0 0 0 0 0 0 0
0 0 0 0 0 0 0 0 0 0 0 0 0 0 0 -0 0 1 1 1 1 1 1 0 0 0 0 0 0 0 0 0 0 0 0 0 0 0
Wind_Speed_500mb
34 29 29 18 9 9 6 13 17 10 4 10 3 5 16 25 29 29 37 43 51 48 45 46 47 48 48 46 47 50 57 60 60 54 51 65 62 63
39 40 37 33 21 16 17 13 16 20 18 16 16 18 20 19 23 33 45 50 44 46 48 49 44 47 53 56 54 51 61 68 66 67 68 65 64 70
27 29 36 40 36 28 19 23 19 22 26 27 26 26 29 33 36 35 35 40 48 49 42 39 46 44 42 52 48 42 43 51 53 60 68 67 77 77
28 25 27 38 46 41 32 27 28 28 31 34 30 30 33 32 36 29 29 36 34 41 53 54 55 58 57 44 44 55 56 46 52 47 50 55 57 73
35 34 28 34 37 41 44 38 35 32 35 42 46 46 45 41 31 32 33 29 53 57 58 59 50 41 49 51 44 43 47 47 44 50 56 52 44 46
41 36 35 33 36 36 38 37 41 43 42 46 51 52 52 41 41 42 50 57 55 52 47 43 41 42 36 40 40 48 52 55 49 45 43 45 41 30
44 47 43 41 42 40 40 43 43 46 46 47 49 48 47 44 46 54 64 59 57 55 49 42 40 37 37 40 49 57 61 53 53 49 44 28 24 20
46 48 50 50 47 44 43 41 41 43 47 48 50 51 50 49 49 50 53 63 71 57 63 49 44 42 41 45 57 60 51 59 60 60 40 19 16 13
53 50 50 49 48 48 44 42 44 45 46 49 54 54 56 51 52 56 59 65 62 55 57 55 44 43 39 48 57 46 59 60 61 52 28 10 15 10
59 53 49 47 47 46 46 49 52 53 53 52 59 60 61 56 57 62 68 66 64 48 42 55 44 36 38 51 48 50 54 57 57 45 19 9 6 3
62 58 55 52 47 45 47 51 52 54 53 57 60 62 62 63 65 69 61 57 59 49 41 43 37 43 44 47 40 53 59 52 52 45 23 6 8 4
68 65 62 60 55 53 54 56 60 58 56 58 60 61 61 60 51 47 44 51 49 55 39 43 42 42 37 41 54 51 52 45 42 38 34 13 3 5
73 71 67 63 61 60 59 63 65 57 59 57 48 44 44 44 38 35 41 46 47 43 31 36 39 37 38 46 45 50 47 37 33 34 28 21 8 12
74 68 67 62 59 60 63 64 61 57 56 53 57 57 52 45 39 41 44 39 33 35 30 30 35 35 38 44 41 49 45 32 24 23 18 14 5 24
71 67 64 65 66 66 64 63 57 59 64 66 66 61 52 46 44 47 36 32 31 31 29 28 34 34 36 38 35 40 40 30 17 14 9 7 3 27
67 67 65 66 67 69 67 65 64 64 63 64 65 65 59 51 51 44 35 29 35 36 32 32 33 35 38 35 32 35 35 26 22 17 9 6 13 30
57 63 72 71 72 74 74 75 76 77 80 81 79 71 60 55 52 39 37 36 38 35 30 29 33 35 32 32 33 29 30 26 20 20 20 17 24 31
55 62 65 67 70 66 65 66 69 74 77 76 75 73 65 52 43 33 37 37 37 38 35 34 38 33 35 37 31 25 22 22 21 19 21 27 29 36
59 63 64 62 63 58 58 59 56 54 59 62 58 55 49 45 42 39 39 38 40 30 26 35 33 34 35 36 29 25 29 26 24 29 28 29 26 27
62 66 62 59 60 61 62 58 52 43 40 40 40 39 39 40 37 37 42 42 35 25 25 33 33 35 35 41 37 33 37 36 34 31 32 33 33 34
56 60 61 72 73 67 56 52 46 45 46 44 41 42 37 37 45 43 40 35 34 35 34 33 25 23 25 32 39 35 35 35 35 36 39 42 44 47
37 35 37 41 45 50 53 54 53 50 41 39 35 30 35 54 50 39 36 37 38 37 36 33 28 28 34 37 38 37 31 33 35 37 38 43 52 56
52 52 52 47 50 50 42 21 20 18 22 38 25 13 18 72 32 33 28 30 32 29 31 32 33 35 38 40 46 48 44 44 48 50 48 44 43 51
Wind_Direction_500mb
217 217 218 219 221 225 257 276 282 286 293 229 285 358 310 284 289 298 307 318 317 321 322 327 326 321 317 313 312 308 303 295 288 289 282 267 264 262
223 226 225 222 224 226 247 262 267 271 265 241 243 272 283 300 304 296 304 308 313 316 319 321 323 322 319 316 315 317 310 299 294 292 287 282 279 257
216 222 227 224 222 228 245 249 267 263 269 268 277 275 284 290 292 298 301 307 311 310 311 316 313 312 316 318 319 317 316 314 305 292 287 292 279 277
209 220 224 220 229 232 242 245 251 259 270 278 281 283 287 298 306 297 301 306 316 320 316 321 320 315 321 319 322 319 318 321 307 308 305 297 283 282
230 233 233 227 230 237 240 250 251 256 263 274 283 289 294 303 295 294 306 299 313 316 318 321 325 333 320 315 320 321 324 327 318 308 305 307 298 295
238 238 236 236 242 245 246 256 257 258 264 270 276 283 291 298 296 303 307 313 317 323 329 332 330 333 338 324 327 330 331 328 322 320 311 304 305 298
244 242 244 244 246 251 257 257 256 255 260 268 275 283 286 293 301 311 311 313 317 323 332 342 339 335 329 335 337 338 337 337 338 333 325 315 319 303
249 249 249 249 250 250 249 254 254 257 263 269 276 280 286 296 305 307 307 312 318 328 326 331 339 341 326 334 341 339 340 343 346 341 332 330 331 311
254 253 251 250 250 251 250 251 252 255 260 270 276 279 288 297 301 301 305 305 305 318 321 322 336 337 331 334 338 339 344 346 349 350 356 337 296 268
255 255 253 251 251 256 259 260 260 261 261 263 271 278 284 291 292 299 302 299 303 316 321 320 334 336 327 334 335 342 348 347 354 2 10 34 41 126
253 252 252 255 254 255 260 263 264 264 263 266 271 278 282 287 291 293 292 298 302 312 322 321 330 332 323 331 338 343 345 349 356 2 7 19 26 342
253 253 253 255 259 261 262 266 270 270 277 280 279 278 280 281 281 279 291 293 296 304 315 315 321 323 323 330 334 338 343 347 355 1 359 2 33 51
250 253 255 257 259 263 264 266 270 281 284 280 275 273 274 276 281 290 295 290 283 283 300 301 303 314 314 318 322 333 338 344 353 1 9 0 130 138
250 252 258 262 264 265 267 268 272 275 270 266 270 271 271 277 292 292 287 271 265 275 284 280 289 302 310 312 317 329 335 335 346 356 12 9 151 164
251 254 259 263 268 268 265 265 264 257 259 264 268 273 279 290 286 281 275 258 263 271 269 274 285 291 300 302 310 319 326 327 326 338 359 24 207 178
250 255 259 264 267 268 268 265 261 259 261 264 268 276 280 278 278 281 262 255 262 264 264 276 285 288 294 293 300 308 317 315 305 302 274 215 202 192
254 255 257 259 261 263 264 263 263 262 262 265 269 272 274 276 272 262 254 258 262 264 272 282 285 284 281 284 297 296 305 309 295 282 256 235 213 212
260 258 260 261 262 265 269 271 269 266 265 266 266 265 267 264 262 251 253 256 260 269 263 268 273 271 272 274 284 290 292 304 288 273 249 242 239 234
259 259 259 262 263 264 268 272 276 276 266 262 262 257 253 259 259 248 251 249 260 263 271 282 273 264 261 268 289 290 295 303 287 267 261 258 265 265
258 260 260 259 258 265 268 269 270 272 260 252 250 254 258 263 254 250 257 257 256 257 272 279 280 276 275 277 279 277 284 288 298 286 270 274 268 265
253 255 259 259 261 264 264 265 266 268 269 262 265 265 262 260 261 255 258 264 270 268 265 267 277 273 275 278 267 274 289 287 296 295 283 272 266 264
238 246 253 254 252 255 257 260 259 257 253 254 249 248 281 286 271 263 265 277 277 275 267 262 261 259 267 274 284 290 285 283 288 295 292 276 265 267
243 238 236 235 236 239 241 242 252 263 307 279 226 184 330 305 265 270 269 276 271 270 271 267 256 261 271 276 280 283 284 286 287 279 282 295 281 268
Wind_Speed_850mb
34 29 29 18 9 9 6 13 17 10 4 10 3 5 16 25 29 29 37 43 51 48 45 46 47 48 48 46 47 50 57 60 60 54 51 65 62 63
39 40 37 33 21 16 17 13 16 20 18 16 16 18 20 19 23 33 45 50 44 46 48 49 44 47 53 56 54 51 61 68 66 67 68 65 64 70
27 29 36 40 36 28 19 23 19 22 26 27 26 26 29 33 36 35 35 40 48 49 42 39 46 44 42 52 48 42 43 51 53 60 68 67 77 77
28 25 27 38 46 41 32 27 28 28 31 34 30 30 33 32 36 29 29 36 34 41 53 54 55 58 57 44 44 55 56 46 52 47 50 55 57 73
35 34 28 34 37 41 44 38 35 32 35 42 46 46 45 41 31 32 33 29 53 57 58 59 50 41 49 51 44 43 47 47 44 50 56 52 44 46
41 36 35 33 36 36 38 37 41 43 42 46 51 52 52 41 41 42 50 57 55 52 47 43 41 42 36 40 40 48 52 55 49 45 43 45 41 30
44 47 43 41 42 40 40 43 43 46 46 47 49 48 47 44 46 54 64 59 57 55 49 42 40 37 37 40 49 57 61 53 53 49 44 28 24 20
46 48 50 50 47 44 43 41 41 43 47 48 50 51 50 49 49 50 53 63 71 57 63 49 44 42 41 45 57 60 51 59 60 60 40 19 16 13
53 50 50 49 48 48 44 42 44 45 46 49 54 54 56 51 52 56 59 65 62 55 57 55 44 43 39 48 57 46 59 60 61 52 28 10 15 10
59 53 49 47 47 46 46 49 52 53 53 52 59 60 61 56 57 62 68 66 64 48 42 55 44 36 38 51 48 50 54 57 57 45 19 9 6 3
62 58 55 52 47 45 47 51 52 54 53 57 60 62 62 63 65 69 61 57 59 49 41 43 37 43 44 47 40 53 59 52 52 45 23 6 8 4
68 65 62 60 55 53 54 56 60 58 56 58 60 61 61 60 51 47 44 51 49 55 39 43 42 42 37 41 54 51 52 45 42 38 34 13 3 5
73 71 67 63 61 60 59 63 65 57 59 57 48 44 44 44 38 35 41 46 47 43 31 36 39 37 38 46 45 50 47 37 33 34 28 21 8 12
74 68 67 62 59 60 63 64 61 57 56 53 57 57 52 45 39 41 44 39 33 35 30 30 35 35 38 44 41 49 45 32 24 23 18 14 5 24
71 67 64 65 66 66 64 63 57 59 64 66 66 61 52 46 44 47 36 32 31 31 29 28 34 34 36 38 35 40 40 30 17 14 9 7 3 27
67 67 65 66 67 69 67 65 64 64 63 64 65 65 59 51 51 44 35 29 35 36 32 32 33 35 38 35 32 35 35 26 22 17 9 6 13 30
57 63 72 71 72 74 74 75 76 77 80 81 79 71 60 55 52 39 37 36 38 35 30 29 33 35 32 32 33 29 30 26 20 20 20 17 24 31
55 62 65 67 70 66 65 66 69 74 77 76 75 73 65 52 43 33 37 37 37 38 35 34 38 33 35 37 31 25 22 22 21 19 21 27 29 36
59 63 64 62 63 58 58 59 56 54 59 62 58 55 49 45 42 39 39 38 40 30 26 35 33 34 35 36 29 25 29 26 24 29 28 29 26 27
62 66 62 59 60 61 62 58 52 43 40 40 40 39 39 40 37 37 42 42 35 25 25 33 33 35 35 41 37 33 37 36 34 31 32 33 33 34
56 60 61 72 73 67 56 52 46 45 46 44 41 42 37 37 45 43 40 35 34 35 34 33 25 23 25 32 39 35 35 35 35 36 39 42 44 47
37 35 37 41 45 50 53 54 53 50 41 39 35 30 35 54 50 39 36 37 38 37 36 33 28 28 34 37 38 37 31 33 35 37 38 43 52 56
52 52 52 47 50 50 42 21 20 18 22 38 25 13 18 72 32 33 28 30 32 29 31 32 33 35 38 40 46 48 44 44 48 50 48 44 43 51
Wind_Direction_850mb
217 217 218 219 221 225 257 276 282 286 293 229 285 358 310 284 289 298 307 318 317 321 322 327 326 321 317 313 312 308 303 295 288 289 282 267 264 262
223 226 225 222 224 226 247 262 267 271 265 241 243 272 283 300 304 296 304 308 313 316 319 321 323 322 319 316 315 317 310 299 294 292 287 282 279 257
216 222 227 224 222 228 245 249 267 263 269 268 277 275 284 290 292 298 301 307 311 310 311 316 313 312 316 318 319 317 316 314 305 292 287 292 279 277
209 220 224 220 229 232 242 245 251 259 270 278 281 283 287 298 306 297 301 306 316 320 316 321 320 315 321 319 322 319 318 321 307 308 305 297 283 282
230 233 233 227 230 237 240 250 251 256 263 274 283 289 294 303 295 294 306 299 313 316 318 321 325 333 320 315 320 321 324 327 318 308 305 307 298 295
238 238 236 236 242 245 246 256 257 258 264 270 276 283 291 298 296 303 307 313 317 323 329 332 330 333 338 324 327 330 331 328 322 320 311 304 305 298
244 242 244 244 246 251 257 257 256 255 260 268 275 283 286 293 301 311 311 313 317 323 332 342 339 335 329 335 337 338 337 337 338 333 325 315 319 303
249 249 249 249 250 250 249 254 254 257 263 269 276 280 286 296 305 307 307 312 318 328 326 331 339 341 326 334 341 339 340 343 346 341 332 330 331 311
254 253 251 250 250 251 250 251 252 255 260 270 276 279 288 297 301 301 305 305 305 318 321 322 336 337 331 334 338 339 344 346 349 350 356 337 296 268
255 255 253 251 251 256 259 260 260 261 261 263 271 278 284 291 292 299 302 299 303 316 321 320 334 336 327 334 335 342 348 347 354 2 10 34 41 126
253 252 252 255 254 255 260 263 264 264 263 266 271 278 282 287 291 293 292 298 302 312 322 321 330 332 323 331 338 343 345 349 356 2 7 19 26 342
253 253 253 255 259 261 262 266 270 270 277 280 279 278 280 281 281 279 291 293 296 304 315 315 321 323 323 330 334 338 343 347 355 1 359 2 33 51
250 253 255 257 259 263 264 266 270 281 284 280 275 273 274 276 281 290 295 290 283 283 300 301 303 314 314 318 322 333 338 344 353 1 9 0 130 138
250 252 258 262 264 265 267 268 272 275 270 266 270 271 271 277 292 292 287 271 265 275 284 280 289 302 310 312 317 329 335 335 346 356 12 9 151 164
251 254 259 263 268 268 265 265 264 257 259 264 268 273 279 290 286 281 275 258 263 271 269 274 285 291 300 302 310 319 326 327 326 338 359 24 207 178
250 255 259 264 267 268 268 265 261 259 261 264 268 276 280 278 278 281 262 255 262 264 264 276 285 288 294 293 300 308 317 315 305 302 274 215 202 192
254 255 257 259 261 263 264 263 263 262 262 265 269 272 274 276 272 262 254 258 262 264 272 282 285 284 281 284 297 296 305 309 295 282 256 235 213 212
260 258 260 261 262 265 269 271 269 266 265 266 266 265 267 264 262 251 253 256 260 269 263 268 273 271 272 274 284 290 292 304 288 273 249 242 239 234
259 259 259 262 263 264 268 272 276 276 266 262 262 257 253 259 259 248 251 249 260 263 271 282 273 264 261 268 289 290 295 303 287 267 261 258 265 265
258 260 260 259 258 265 268 269 270 272 260 252 250 254 258 263 254 250 257 257 256 257 272 279 280 276 275 277 279 277 284 288 298 286 270 274 268 265
253 255 259 259 261 264 264 265 266 268 269 262 265 265 262 260 261 255 258 264 270 268 265 267 277 273 275 278 267 274 289 287 296 295 283 272 266 264
238 246 253 254 252 255 257 260 259 257 253 254 249 248 281 286 271 263 265 277 277 275 267 262 261 259 267 274 284 290 285 283 288 295 292 276 265 267
243 238 236 235 236 239 241 242 252 263 307 279 226 184 330 305 265 270 269 276 271 270 271 267 256 261 271 276 280 283 284 286 287 279 282 295 281 268